Regional Weather Roundup
Issued by NWS Kansas City/Pleasant Hill, MO

Home | Current Version | Previous Version | Text Only | Print | Product List | Glossary On
Versions: 1 2 3 4 5 6 7 8 9 10 11 12 13 14 15 16 17 18 19 20 21 22 23 24 25 26 27 28 29 30 31 32 33 34 35 36 37 38 39 40 41 42 43 44 45 46 47 48 49 50
000
ASUS43 KEAX 100010
RWREAX

WEATHER ROUNDUP FOR EASTERN KANSAS AND NORTHWEST MISSOURI
NATIONAL WEATHER SERVICE KANSAS CITY/PLEASANT HILL MO
600 PM CST TUE FEB 09 2016

KSZ040-057-103>105-MOZ028-029-037-043-100100-
...KANSAS CITY METROPOLITAN AREA...

CITY           SKY/WX    TMP DP  RH WIND       PRES   REMARKS
K.C. INTL      PTCLDY    24   5  44 NW12      30.23R WCI  13
6HR MIN TEMP:  24; 6HR MAX TEMP:  29;

K.C. DOWNTOWN  CLEAR     27   4  37 NW12      30.24R WCI  17
6HR MIN TEMP:  26; 6HR MAX TEMP:  31;

LEES SUMMIT    CLEAR     25   1  35 NW14      30.22R WCI  13
6HR MIN TEMP:  25; 6HR MAX TEMP:  30;

OLATHE - IXD   CLEAR     25   3  38 NW15G24   30.24S WCI  13
6HR MIN TEMP:  25; 6HR MAX TEMP:  31;

OLATHE - OJC   CLEAR     25   1  35 N9G22     30.23S WCI  15
6HR MIN TEMP:  25; 6HR MAX TEMP:  30;

LAWRENCE       CLEAR     25   5  42 NW10      30.27S WCI  15

$$

MOZ001>008-011>017-020>025-030>033-038>040-044>046-053-054-100100-
...NORTHERN AND CENTRAL MISSOURI...

CITY           SKY/WX    TMP DP  RH WIND       PRES   REMARKS
ST. JOSEPH     CLEAR     25   6  44 N16       30.26R WCI  12
6HR MIN TEMP:  24; 6HR MAX TEMP:  28;

MOSBY            N/A     27   3  36 NW12      30.23R WCI  16
WARRENSBURG    CLEAR     27   5  39 NW14G22   30.22R WCI  15
WHITEMAN AFB   CLEAR     25   3  39 NW10G22   30.19R WCI  15
6HR MIN TEMP:  25; 6HR MAX TEMP:  30;

CLINTON          N/A     28   7  40 NW20G26   30.22R WCI  15
SEDALIA        CLEAR     25   7  46 NW16      30.20R WCI  12
6HR MIN TEMP:  25; 6HR MAX TEMP:  29;

WARSAW         NOT AVBL
CHILLICOTHE      N/A     24   5  44 NW10G17   30.20R WCI  14
6HR MIN TEMP:  22; 6HR MAX TEMP:  28;

KIRKSVILLE     CLEAR     20   4  50 NW14G21   30.13R WCI   7
6HR MIN TEMP:  20; 6HR MAX TEMP:  25; 6HR PCP: TRACE;


$$

MOZ041-047>049-056>058-063>065-088>090-097-100100-
...EASTERN AND SOUTHERN MISSOURI...

CITY           SKY/WX    TMP DP  RH WIND       PRES   REMARKS
ST. LOUIS INTL MOCLDY    25   6  44 NW13      30.08R WCI  14
6HR MIN TEMP:  20; 6HR MAX TEMP:  26; 6HR PCP: TRACE;

SPIRIT OF STL  MOCLDY    26   9  48 NW15G23   30.09R WCI  14
COLUMBIA       MOCLDY    24   9  52 NW16      30.14R WCI  11
JEFFERSON CITY CLOUDY    25  10  53 W15G25    30.17R WCI  13
ROLLA          CLOUDY    23  10  57 NW17      30.09R WCI   9
OSAGE BEACH    PTCLDY    27   7  43 W7G17     30.15R WCI  19
SPRINGFIELD    CLEAR     29   4  34 NW14G22   30.15R WCI  18
BRANSON        CLEAR     32   5  32 NW10G20   30.15R WCI  24
JOPLIN         CLEAR     31   7  36 NW12      30.23R WCI  22
WEST PLAINS    CLEAR     29   6  38 NW12G21   30.10R WCI  19

$$

IAZ060-094-KSZ022-034>040-054-083-096-NEZ052-066-093-100100-
...KANSAS...SOUTHEAST NEBRASKA AND IOWA...

CITY           SKY/WX    TMP DP  RH WIND       PRES   REMARKS
TOPEKA         CLEAR     27   5  39 NW13      30.29R WCI  16
6HR MIN TEMP:  27; 6HR MAX TEMP:  33;

MANHATTAN      PTCLDY    28   8  43 N5        30.32R WCI  23
EMPORIA        CLOUDY    28   6  39 N15G24    30.29R WCI  16
CHANUTE        CLEAR     31   8  38 N15       30.27R WCI  20
WICHITA        MOCLDY    36  16  44 N13       30.30R WCI  27
OMAHA          PTCLDY    21  11  65 N8        30.27R WCI  11
LINCOLN        CLOUDY    28  14  55 NW7       30.28S WCI  21
FALLS CITY     CLEAR     24   9  52 NW15      30.27R WCI  11
LAMONI         CLEAR     18   6  59 NW17      30.17R WCI   3
DES MOINES     PTCLDY    17   6  62 NW17      30.17S WCI   1

$$




USA.gov is the U.S. government's official web portal to all federal, state and local government web resources and services.